Weather History for Belize, Belize

Change the Weather History Date:

Tuesday, January 22, 2013

  Actual Average Record
Temperature  
Mean Temperature 74 °F -  
Max Temperature 81 °F - 87 °F (2005)
Min Temperature 68 °F - 59 °F (2009)
Cooling Degree Days 10    
Growing Degree Days 24 (Base 50)    
Moisture  
Dew Point 69 °F    
Average Humidity 82    
Maximum Humidity 94    
Minimum Humidity 60    
Precipitation  
Precipitation 0.08 in 0.12 in - ()
Sea Level Pressure  
Sea Level Pressure 30.08 in    
Wind  
Wind Speed 5 mph ()    
Max Wind Speed 12 mph    
Max Gust Speed -    
Visibility 8.1 miles    
Events Rain    
Averages and records for this station are not official NWS values.
T = Trace of Precipitation, MM = Missing Value Source: Averaged Metar Reports

Daily Weather History Graph

Daily Weather History Graph

Search for Another Location

Airport:

Trip Planner

Search our weather history database for the weather conditions in past years. The results will help you decide how hot, cold, wet, or windy it might be!

Date:

Astronomy

Jan. 22, 2013 Rise Set
Actual Time 6:26 AM CST 5:43 PM CST
Civil Twilight 6:03 AM CST 6:06 PM CST
Nautical Twilight 5:37 AM CST 6:32 PM CST
Astronomical Twilight 5:11 AM CST 6:58 PM CST
Moon 2:11 PM CST (1/22) 2:43 AM CST (1/22)
Length of Visible Light 12h 02m
Length of Day
11h 16m
Waxing Gibbous, 83% of the Moon is Illuminated
Jan 22
Waxing Gibbous
Jan 26
Full
Feb 3
Last Quarter
Feb 10
New
Feb 17
First Quarter

Hourly Weather History & Observations

Time (CST) Temp. Heat Index Dew Point Humidity Pressure Visibility Wind Dir Wind Speed Gust Speed Precip Events Conditions
12:00 AM 72 °F - 70 °F 92% 30.06 in 12 mi Calm Calm - -   Mostly Cloudy
3:00 AM 71 °F - 69 °F 90% 30.02 in 12 mi Calm Calm - -   Scattered Clouds
5:00 AM 69.8 °F - 68.0 °F 94% 30.04 in 6.2 mi NW 3.5 mph - N/A   Scattered Clouds
6:00 AM 70 °F - 68 °F 92% 30.06 in 12 mi NNW 6.9 mph - -   Mostly Cloudy
6:00 AM 69.8 °F - 68.0 °F 94% 30.06 in 6.2 mi NNW 6.9 mph - N/A   Mostly Cloudy
7:00 AM 69.8 °F - 68.0 °F 94% 30.06 in 6.2 mi NNW 9.2 mph - N/A   Mostly Cloudy
8:00 AM 71.6 °F - 68.0 °F 88% 30.09 in 6.2 mi NNW 9.2 mph - N/A   Mostly Cloudy
9:00 AM 74 °F - 69 °F 81% 30.13 in 12 mi NW 5.8 mph - -   Mostly Cloudy
9:00 AM 73.4 °F - 69.8 °F 88% 30.12 in 6.2 mi NW 5.8 mph - N/A   Mostly Cloudy
10:00 AM 78.8 °F - 71.6 °F 78% 30.12 in 6.2 mi WNW 5.8 mph - N/A   Mostly Cloudy
11:00 AM 80.6 °F 83.9 °F 69.8 °F 70% 30.11 in 6.2 mi ENE 5.8 mph - N/A   Mostly Cloudy
12:00 PM 81 °F - 69 °F 60% 30.09 in 12 mi NE 5.8 mph - -   Mostly Cloudy
12:00 PM 80.6 °F 83.9 °F 69.8 °F 70% 30.08 in 6.2 mi NE 5.8 mph - N/A   Scattered Clouds
1:00 PM 80.6 °F 83.9 °F 69.8 °F 70% 30.06 in 6.2 mi NE 9.2 mph - N/A   Mostly Cloudy
2:00 PM 80.6 °F 83.9 °F 69.8 °F 70% 30.04 in 6.2 mi NNW 9.2 mph - N/A   Mostly Cloudy
3:00 PM 80 °F - 71 °F 66% 30.04 in 12 mi NNE 3.5 mph - -   Mostly Cloudy
3:00 PM 80.6 °F 83.9 °F 69.8 °F 70% 30.03 in 6.2 mi NNE 3.5 mph - N/A   Mostly Cloudy
4:00 PM 78.8 °F - 69.8 °F 74% 30.05 in 6.2 mi East 11.5 mph - N/A   Mostly Cloudy
5:00 PM 75.2 °F - 71.6 °F 89% 30.07 in 6.2 mi ENE 11.5 mph - N/A Rain Light Rain Showers
6:00 PM 74 °F - 70 °F 83% 30.07 in 12 mi ENE 8.1 mph - - Rain Light Rain Showers
6:00 PM - - - N/A% 30.07 in 6.2 mi ENE 8.1 mph - N/A   Mostly Cloudy
7:00 PM 75.2 °F - 69.8 °F 83% 30.08 in 6.2 mi NNE 8.1 mph - N/A   Mostly Cloudy
9:00 PM 72 °F - 69 °F 89% 30.14 in 11 mi NNE 3.5 mph - - Rain Light Rain Showers
9:00 PM 71.6 °F - 69.8 °F 94% 30.14 in 6.2 mi NNE 3.5 mph - N/A Rain Rain Showers